星链-1697 (STARLINK-1697 )

导读 | 豆包AI

STARLINK-1697是美国太空探索技术公司(SpaceX)星链(Starlink)卫星互联网项目中的一颗卫星,于2020年10月6日发射入轨,属于星链项目低轨卫星星座组网建设的一环,主要用于为全球用户提供高速互联网接入服务,尤其覆盖偏远地区等网络基础设施薄弱区域。

基本信息
目录编号:
46546
目录名称:
STARLINK-1697
国际标识:
2020-070Q
轨道中心:
EARTH
卫星名称:
星链-1697
卫星全名:
星链-1697 (STARLINK-1697 )
卫星状态:
已陨落 最后检测时间 2025-04-06
发射日期:
2020-10-06 UTC
国别 :
美国 (US)
星等 :
--
轨道信息
数据来源 国际轨道数据
星历时间: 2025-04-06T02:06:34+0800
轨道信息已过期363天
半长轴: 6563.937km
偏心率: 0.0009908
轨道倾角: 53.027°
近地点辐角 309.424°
升交点赤经 200.683°
平近点角 130.806°
近地点: 179.298km
远地点: 192.306km
周期: 88.208分钟
每日圈数: 16.325115
详细信息
固有亮度:
5
最大亮度:
2.5
卫星平台:
Starlink V1.0
覆盖范围:
全球
运营商:
太空探索技术公司
运营商所在国:
美国
制造商(研发单位):
太空探索技术公司
制造商所在国:
美国
使用方式:
暂无
卫星简介
星链(Starlink)计划是由太空探索技术公司(SpaceX)提出的一个巨型低轨卫星互联网星座项目,计划在2019年至2024年间在太空搭建由约1.2万颗卫星组成的“星链”网络,其中1584颗将部署在地球上空550千米处的近地轨道,并从2020年开始工作。该卫星仍在工作。